Weather History for Las Vegas, NM

Change the Weather History Date:

Sunday, March 17, 2013

  Actual Average Record
Temperature  
Mean Temperature 44 °F -  
Max Temperature 59 °F 55 °F 75 °F (2007)
Min Temperature 30 °F 27 °F 10 °F (1980)
Degree Days  
Heating Degree Days 22    
Moisture  
Dew Point 19 °F    
Average Humidity 43    
Maximum Humidity 82    
Minimum Humidity 13    
Precipitation  
Precipitation 0.00 in - - ()
Sea Level Pressure  
Sea Level Pressure 29.65 in    
Wind  
Wind Speed 14 mph (WSW)    
Max Wind Speed 40 mph    
Max Gust Speed 51 mph    
Visibility 10 miles    
Events      
Averages and records for this station are not official NWS values.
T = Trace of Precipitation, MM = Missing Value Source: NWS Daily Summary

Daily Weather History Graph

Daily Weather History Graph

Search for Another Location

Airport:

Trip Planner

Search our weather history database for the weather conditions in past years. The results will help you decide how hot, cold, wet, or windy it might be!

Date:

Astronomy

Mar. 17, 2013 Rise Set
Actual Time 7:08 AM MDT 7:10 PM MDT
Civil Twilight 6:42 AM MDT 7:35 PM MDT
Nautical Twilight 6:12 AM MDT 8:05 PM MDT
Astronomical Twilight 5:43 AM MDT 8:35 PM MDT
Moon 10:33 AM MDT (3/17) 12:09 AM MDT (3/17)
Length of Visible Light 12h 52m
Length of Day
12h 02m
Waxing Crescent, 32% of the Moon is Illuminated
Mar 17
Waxing Crescent
Mar 19
First Quarter
Mar 27
Full
Apr 2
Last Quarter
Apr 10
New

Hourly Weather History & Observations

Time (MDT) Temp. Windchill Dew Point Humidity Pressure Visibility Wind Dir Wind Speed Gust Speed Precip Events Conditions
12:53 AM 39.0 °F 34.0 °F 34.0 °F 82% 29.77 in 10.0 mi WSW 6.9 mph - 0.00 in   Overcast
1:53 AM 41.0 °F 39.0 °F 33.1 °F 73% 29.74 in 10.0 mi WNW 3.5 mph - 0.00 in   Mostly Cloudy
2:53 AM 36.0 °F 29.0 °F 30.0 °F 79% 29.70 in 10.0 mi SSE 9.2 mph - N/A   Partly Cloudy
3:53 AM 34.0 °F 26.6 °F 28.0 °F 79% 29.71 in 10.0 mi South 9.2 mph - N/A   Clear
4:53 AM 33.1 °F 24.9 °F 27.0 °F 78% 29.71 in 10.0 mi South 10.4 mph - N/A   Clear
5:53 AM 36.0 °F 32.1 °F 27.0 °F 70% 29.69 in 10.0 mi South 4.6 mph - N/A   Clear
6:53 AM 30.0 °F 23.2 °F 25.0 °F 82% 29.76 in 10.0 mi South 6.9 mph - N/A   Clear
7:53 AM 36.0 °F 30.3 °F 28.9 °F 76% 29.73 in 10.0 mi South 6.9 mph - N/A   Clear
8:53 AM 39.9 °F 34.5 °F 32.0 °F 73% 29.72 in 10.0 mi South 8.1 mph - N/A   Clear
9:53 AM 50.0 °F - 28.9 °F 44% 29.68 in 10.0 mi South 16.1 mph - N/A   Clear
10:53 AM 55.0 °F - 23.0 °F 29% 29.63 in 10.0 mi West 23.0 mph 35.7 mph N/A   Clear
11:53 AM 55.0 °F - 24.1 °F 30% 29.63 in 10.0 mi WSW 23.0 mph 32.2 mph N/A   Scattered Clouds
12:53 PM 55.0 °F - 24.1 °F 30% 29.64 in 10.0 mi West 40.3 mph 50.6 mph N/A   Clear
1:53 PM 54.0 °F - 27.0 °F 35% 29.61 in 10.0 mi WNW 27.6 mph 39.1 mph N/A   Mostly Cloudy
2:53 PM 57.0 °F - 17.1 °F 21% 29.57 in 10.0 mi WNW 24.2 mph 35.7 mph N/A   Clear
3:53 PM 55.9 °F - 19.9 °F 25% 29.58 in 10.0 mi WNW 27.6 mph 48.3 mph N/A   Scattered Clouds
4:53 PM 57.9 °F - 14.0 °F 18% 29.56 in 10.0 mi West 18.4 mph 27.6 mph N/A   Partly Cloudy
5:53 PM 57.0 °F - 7.0 °F 14% 29.54 in 10.0 mi West 26.5 mph 36.8 mph N/A   Clear
6:53 PM 55.0 °F - 3.9 °F 13% 29.60 in 10.0 mi West 31.1 mph 36.8 mph N/A   Partly Cloudy
7:53 PM 52.0 °F - 3.0 °F 14% 29.61 in 10.0 mi West 16.1 mph 27.6 mph N/A   Clear
8:53 PM 48.9 °F - 1.0 °F 14% 29.62 in 10.0 mi West 12.7 mph - N/A   Clear
9:53 PM 48.9 °F - 1.0 °F 14% 29.61 in 10.0 mi WNW 25.3 mph 33.4 mph N/A   Clear
10:53 PM 44.1 °F 37.1 °F 3.0 °F 18% 29.63 in 10.0 mi WNW 15.0 mph 23.0 mph N/A   Clear
11:53 PM 46.0 °F 37.8 °F 5.0 °F 19% 29.62 in 10.0 mi West 23.0 mph 31.1 mph N/A   Clear